Location: Sungai Bunut
(2.6333°N, 113.7333°E)
Time: 08:57:30
(UTC+00:00)

Courier 1B - Pass Details

Date: 11 December 2023
Orbit: 962 x 1209 km, 28.3° (Epoch: 03 March)

Event Time Altitude Azimuth Distance (km) Brightness Sun altitude
Exits shadow 21:36:48 13° 290° (WNW) 2,891 9.3 -10.6°
Maximum altitude 21:41:49 23° 335° (NNW) 2,205 9.0 -9.4°
Drops below altitude 10° 21:47:30 10° 26° (NNE) 2,979 10.1 -8.1°
Sets 21:50:51 0° 40° (NE) 3,891 10.9 -7.4°
